Torna al catalogo

DELTA 1 DEB

AttivoSSO
NORAD 42565·DEBRIS·🇺🇸 United States

Lanciato Jul 23, 1972 da Vandenberg Space Force Base

Loading…

Prossimi Passaggi (prossime 24 ore)

TLE

In scadenzaSource: Space-Track

Epoca: Sep 10, 2026, 15:59 UTC

1 42565U 72058JY  26253.66632527  .00000321  00000-0  82456-4 0  9994
2 42565  97.8854  44.4323 0034710 275.0277  84.6960 14.55938969678902

Traccia DELTA 1 DEB in tempo reale con AllMySat

Download on the App Store